Ellensburg, WA

7:22 AM PDT on June 28, 2017 (GMT -0700)
Bowers

Weather History for KELN - January, 2013

Change the Weather History Date:

Tuesday, January 22, 2013

  Actual Average (KYKM) Record (KYKM)
Temperature  
Mean Temperature 21 °F -  
Max Temperature 23 °F 38 °F 55 °F (1950)
Min Temperature 19 °F 23 °F -3 °F (1969)
Degree Days  
Heating Degree Days 44    
Moisture  
Dew Point 17 °F    
Average Humidity 81    
Maximum Humidity 93    
Minimum Humidity 74    
Precipitation  
Precipitation 0.00 in - - ()
Sea Level Pressure  
Sea Level Pressure 30.29 in    
Wind  
Wind Speed 1 mph (NE)    
Max Wind Speed 5 mph    
Max Gust Speed -    
Visibility 7 miles    
Events      
Averages and records for this station are not official NWS values.
T = Trace of Precipitation, MM = Missing Value Source: NWS Daily Summary

Daily Weather History Graph

Daily Weather History Graph

Search for Another Location

Airport or City:

Trip Planner

Search our weather history database for the weather conditions in past years. The results will help you decide how hot, cold, wet, or windy it might be!

Date:

Astronomy

Jan. 22, 2013 Rise Set
Actual Time 7:37 AM PST 4:50 PM PST
Civil Twilight 7:04 AM PST 5:23 PM PST
Nautical Twilight 6:26 AM PST 6:01 PM PST
Astronomical Twilight 5:50 AM PST 6:37 PM PST
Moon 1:14 PM PST (1/22) 4:06 AM PST (1/22)
Length of Visible Light 10h 19m
Length of Day
9h 12m
Waxing Gibbous, 83% of the Moon is Illuminated
Jan 22
Waxing Gibbous
Jan 26
Full
Feb 3
Last Quarter
Feb 9
New
Feb 17
First Quarter

Hourly Weather History & Observations

Time (PST) Temp. Windchill Dew Point Humidity Pressure Visibility Wind Dir Wind Speed Gust Speed Precip Events Conditions
12:32 AM 19.4 °F - 15.8 °F 86% 30.28 in 2.0 mi Calm Calm - N/A   Overcast
12:53 AM 19.9 °F - 16.0 °F 85% 30.37 in 2.0 mi Calm Calm - N/A   Overcast
1:08 AM 19.4 °F - 17.6 °F 93% 30.29 in 3.0 mi Calm Calm - N/A   Overcast
1:42 AM 19.4 °F - 15.8 °F 86% 30.30 in 2.5 mi Calm Calm - N/A   Overcast
1:49 AM 19.4 °F - 15.8 °F 86% 30.30 in 3.0 mi Calm Calm - N/A   Overcast
1:53 AM 19.9 °F - 16.0 °F 85% 30.38 in 3.0 mi Calm Calm - N/A   Overcast
2:02 AM 19.4 °F - 15.8 °F 86% 30.30 in 2.5 mi Calm Calm - N/A   Overcast
2:20 AM 19.4 °F - 15.8 °F 86% 30.29 in 4.0 mi Calm Calm - N/A   Overcast
2:53 AM 19.9 °F 14.9 °F 16.0 °F 85% 30.37 in 4.0 mi North 3.5 mph - N/A   Overcast
3:53 AM 21.0 °F 14.6 °F 16.0 °F 81% 30.36 in 4.0 mi North 4.6 mph - N/A   Haze
4:53 AM 21.0 °F 14.6 °F 16.0 °F 81% 30.35 in 5.0 mi North 4.6 mph - N/A   Haze
5:53 AM 21.0 °F - 16.0 °F 81% 30.33 in 7.0 mi Calm Calm - N/A   Overcast
6:53 AM 21.0 °F - 17.1 °F 85% 30.33 in 8.0 mi Calm Calm - N/A   Overcast
7:53 AM 21.0 °F - 16.0 °F 81% 30.35 in 9.0 mi Calm Calm - N/A   Overcast
8:53 AM 21.0 °F - 16.0 °F 81% 30.34 in 7.0 mi Calm Calm - N/A   Overcast
9:53 AM 21.0 °F - 17.1 °F 85% 30.34 in 7.0 mi Calm Calm - N/A   Overcast
10:53 AM 21.9 °F - 17.1 °F 82% 30.35 in 7.0 mi Calm Calm - N/A   Overcast
11:53 AM 21.9 °F - 17.1 °F 82% 30.34 in 10.0 mi Calm Calm - N/A   Overcast
12:53 PM 23.0 °F - 17.1 °F 78% 30.31 in 10.0 mi Calm Calm - N/A   Overcast
1:53 PM 23.0 °F - 17.1 °F 78% 30.29 in 10.0 mi Calm Calm - N/A   Overcast
2:35 PM 23.0 °F - 17.6 °F 80% 30.21 in 10.0 mi Calm Calm - N/A   Overcast
2:53 PM 23.0 °F - 17.1 °F 78% 30.28 in 10.0 mi Calm Calm - N/A   Overcast
3:10 PM 23.0 °F - 17.6 °F 80% 30.21 in 10.0 mi Calm Calm - N/A   Overcast
3:53 PM 23.0 °F - 17.1 °F 78% 30.28 in 10.0 mi Calm Calm - N/A   Overcast
4:53 PM 23.0 °F 18.4 °F 17.1 °F 78% 30.27 in 10.0 mi East 3.5 mph - N/A   Overcast
5:53 PM 23.0 °F 18.4 °F 17.1 °F 78% 30.27 in 10.0 mi ENE 3.5 mph - N/A   Overcast
6:53 PM 23.0 °F 18.4 °F 17.1 °F 78% 30.25 in 10.0 mi ENE 3.5 mph - N/A   Overcast
7:53 PM 23.0 °F - 17.1 °F 78% 30.25 in 10.0 mi Calm Calm - N/A   Overcast
8:53 PM 23.0 °F - 16.0 °F 74% 30.24 in 10.0 mi Calm Calm - N/A   Overcast
9:53 PM 23.0 °F - 17.1 °F 78% 30.24 in 10.0 mi Calm Calm - N/A   Overcast
10:44 PM 23.0 °F - 17.6 °F 80% 30.14 in 10.0 mi Calm Calm - N/A   Overcast
10:53 PM 23.0 °F - 17.1 °F 78% 30.22 in 10.0 mi Calm Calm - N/A   Overcast
11:51 PM 23.0 °F - 17.6 °F 80% 30.14 in 10.0 mi Calm Calm - N/A   Overcast
11:53 PM 23.0 °F - 17.1 °F 78% 30.22 in 10.0 mi Calm Calm - N/A   Overcast